When you browse on this site, cookies collect data to enhance your experience and personalize the content and advertising you see.
Visit our Privacy Policy to learn more. By continuing to use the site, you agree to this use of cookies and data.
  • In Austria
  • List of Countries
  • For 7 days
  • Water Temperature
  • Weather Map
  • News
  • Weather Widgets
  • user-avatar
    Login

    Hourly Weather Kamyshka

    Today, 1 June, Monday

    Time Temperature Precipitation Wind Pressure Humidity
    00:00 +17°C° 0 mm 4 mps 744 mmHg 74%
    01:00 +15°C° 0 mm 4 mps 745 mmHg 77%
    02:00 +15°C° 0 mm 4 mps 745 mmHg 80%
    03:00 +14°C° 0 mm 4 mps 745 mmHg 82%
    04:00 +14°C° 0 mm 3 mps 745 mmHg 84%
    05:00 +15°C° 0 mm 4 mps 745 mmHg 80%
    06:00 +16°C° 0 mm 5 mps 745 mmHg 77%
    07:00 +17°C° 0 mm 5 mps 745 mmHg 74%
    08:00 +19°C° 0 mm 6 mps 746 mmHg 69%
    09:00 +20°C° 0 mm 6 mps 746 mmHg 64%
    10:00 +21°C° 0 mm 6 mps 746 mmHg 58%
    11:00 +22°C° 0 mm 6 mps 746 mmHg 55%
    12:00 +22°C° 0 mm 6 mps 746 mmHg 52%
    13:00 +23°C° 0 mm 6 mps 746 mmHg 49%
    14:00 +23°C° 0 mm 6 mps 746 mmHg 49%
    15:00 +23°C° 0 mm 6 mps 747 mmHg 50%
    16:00 +23°C° 0 mm 6 mps 747 mmHg 50%
    17:00 +23°C° 0 mm 4 mps 747 mmHg 54%
    18:00 +22°C° 0 mm 3 mps 747 mmHg 58%
    19:00 +23°C° 0 mm 2 mps 746 mmHg 61%
    20:00 +20°C° 0 mm 2 mps 747 mmHg 66%
    21:00 +19°C° 0 mm 1 mps 747 mmHg 70%
    22:00 +18°C° 0 mm 1 mps 747 mmHg 74%
    23:00 +16°C° 0 mm 0 mps 747 mmHg 75%

    Tomorrow, 2 June, Tuesday

    Time Temperature Precipitation Wind Pressure Humidity
    00:00 +15°C° 0 mm 0 mps 747 mmHg 76%
    01:00 +15°C° 0 mm 0 mps 747 mmHg 76%
    02:00 +14°C° 0 mm 0 mps 747 mmHg 78%
    03:00 +14°C° 0 mm 0 mps 747 mmHg 80%
    04:00 +14°C° 0 mm 0 mps 748 mmHg 82%
    05:00 +15°C° 0 mm 0 mps 748 mmHg 77%
    06:00 +16°C° 0 mm 0 mps 748 mmHg 73%
    07:00 +18°C° 0 mm 0 mps 747 mmHg 68%
    08:00 +19°C° 0 mm 0 mps 748 mmHg 63%
    09:00 +22°C° 0 mm 1 mps 748 mmHg 57%
    10:00 +24°C° 0 mm 1 mps 748 mmHg 52%
    11:00 +25°C° 0 mm 1 mps 748 mmHg 48%
    12:00 +25°C° 0 mm 1 mps 748 mmHg 45%
    13:00 +26°C° 0 mm 1 mps 748 mmHg 42%
    14:00 +26°C° 0 mm 1 mps 748 mmHg 44%
    15:00 +26°C° 0 mm 1 mps 748 mmHg 47%
    16:00 +25°C° 0 mm 1 mps 748 mmHg 49%
    17:00 +24°C° 0 mm 2 mps 748 mmHg 55%
    18:00 +22°C° 0 mm 3 mps 747 mmHg 61%
    19:00 +22°C° 0 mm 4 mps 747 mmHg 66%
    20:00 +20°C° 0 mm 4 mps 747 mmHg 70%
    21:00 +19°C° 0 mm 4 mps 747 mmHg 75%
    22:00 +18°C° 0 mm 4 mps 747 mmHg 79%
    23:00 +17°C° 0 mm 4 mps 747 mmHg 78%

    Day after tomorrow, 3 June, Wednesday

    Time Temperature Precipitation Wind Pressure Humidity
    00:00 +17°C° 0 mm 4 mps 747 mmHg 77%
    01:00 +15°C° 0 mm 4 mps 746 mmHg 77%
    02:00 +15°C° 0 mm 4 mps 746 mmHg 77%
    03:00 +15°C° 0 mm 4 mps 746 mmHg 77%
    04:00 +16°C° 0 mm 3 mps 746 mmHg 78%
    05:00 +15°C° 0 mm 4 mps 746 mmHg 76%
    06:00 +17°C° 0 mm 4 mps 746 mmHg 74%
    07:00 +18°C° 0 mm 4 mps 746 mmHg 72%
    08:00 +20°C° 0 mm 4 mps 746 mmHg 68%
    09:00 +21°C° 0 mm 4 mps 746 mmHg 63%
    10:00 +23°C° 0 mm 5 mps 746 mmHg 59%
    11:00 +25°C° 0 mm 5 mps 745 mmHg 56%
    12:00 +26°C° 0 mm 5 mps 745 mmHg 52%
    13:00 +27°C° 0 mm 5 mps 745 mmHg 49%
    14:00 +27°C° 0 mm 5 mps 745 mmHg 50%
    15:00 +27°C° 0 mm 5 mps 745 mmHg 50%
    16:00 +27°C° 0 mm 5 mps 745 mmHg 51%
    17:00 +26°C° 0 mm 5 mps 745 mmHg 56%
    18:00 +24°C° 0 mm 6 mps 745 mmHg 62%
    19:00 +23°C° 0 mm 6 mps 744 mmHg 67%
    20:00 +22°C° 0 mm 6 mps 744 mmHg 71%
    21:00 +20°C° 0 mm 6 mps 744 mmHg 74%
    22:00 +19°C° 0 mm 6 mps 744 mmHg 78%
    23:00 +17°C° 0 mm 6 mps 744 mmHg 80%

    4 June, Thursday

    Time Temperature Precipitation Wind Pressure Humidity
    00:00 +17°C° 0 mm 5 mps 743 mmHg 83%
    01:00 +16°C° 0 mm 5 mps 743 mmHg 85%
    02:00 +16°C° 0 mm 5 mps 743 mmHg 83%
    03:00 +16°C° 0 mm 5 mps 743 mmHg 81%
    04:00 +16°C° 0 mm 5 mps 743 mmHg 78%
    05:00 +17°C° 0 mm 6 mps 743 mmHg 75%
    06:00 +19°C° 0 mm 6 mps 743 mmHg 72%
    07:00 +18°C° 0 mm 7 mps 743 mmHg 69%
    08:00 +20°C° 0 mm 7 mps 743 mmHg 66%
    09:00 +22°C° 0 mm 7 mps 743 mmHg 64%
    10:00 +23°C° 0 mm 7 mps 743 mmHg 61%
    11:00 +23°C° 0 mm 7 mps 743 mmHg 60%
    12:00 +23°C° 0 mm 7 mps 743 mmHg 59%
    13:00 +23°C° 0 mm 6 mps 743 mmHg 59%
    14:00 +22°C° 0.5 mm 6 mps 744 mmHg 64%
    15:00 +21°C° 0.5 mm 6 mps 744 mmHg 69%
    16:00 +20°C° 0.5 mm 6 mps 744 mmHg 74%
    17:00 +20°C° 2.1 mm 7 mps 744 mmHg 77%
    18:00 +18°C° 2.1 mm 8 mps 744 mmHg 80%
    19:00 +17°C° 2.1 mm 9 mps 744 mmHg 83%
    20:00 +17°C° 0.1 mm 9 mps 744 mmHg 79%
    21:00 +17°C° 0.1 mm 9 mps 745 mmHg 74%
    22:00 +18°C° 0.1 mm 8 mps 745 mmHg 70%
    23:00 +17°C° 0.1 mm 8 mps 745 mmHg 69%

    5 June, Friday

    Time Temperature Precipitation Wind Pressure Humidity
    00:00 +17°C° 0.1 mm 7 mps 745 mmHg 68%
    01:00 +17°C° 0.1 mm 7 mps 745 mmHg 67%
    02:00 +16°C° 0.3 mm 7 mps 745 mmHg 68%
    03:00 +16°C° 0.3 mm 6 mps 745 mmHg 68%
    04:00 +15°C° 0.3 mm 6 mps 745 mmHg 68%
    05:00 +15°C° 0.1 mm 6 mps 746 mmHg 68%
    06:00 +15°C° 0.1 mm 6 mps 746 mmHg 67%
    07:00 +15°C° 0.1 mm 6 mps 746 mmHg 66%
    08:00 +15°C° 0 mm 6 mps 747 mmHg 67%
    09:00 +15°C° 0 mm 6 mps 747 mmHg 67%
    10:00 +16°C° 0 mm 6 mps 747 mmHg 68%
    11:00 +16°C° 0.1 mm 7 mps 747 mmHg 69%
    12:00 +15°C° 0.1 mm 7 mps 748 mmHg 70%
    13:00 +15°C° 0.1 mm 7 mps 748 mmHg 70%
    14:00 +15°C° 0.1 mm 8 mps 748 mmHg 70%
    15:00 +16°C° 0.1 mm 8 mps 748 mmHg 70%
    16:00 +16°C° 0.1 mm 9 mps 748 mmHg 70%
    17:00 +16°C° 0 mm 9 mps 748 mmHg 70%
    18:00 +15°C° 0 mm 9 mps 748 mmHg 70%
    19:00 +15°C° 0 mm 9 mps 748 mmHg 70%
    20:00 +15°C° 0 mm 8 mps 748 mmHg 67%
    21:00 +15°C° 0 mm 8 mps 748 mmHg 64%
    22:00 +15°C° 0 mm 7 mps 748 mmHg 62%
    23:00 +15°C° 0 mm 7 mps 748 mmHg 61%

    6 June, Saturday

    Time Temperature Precipitation Wind Pressure Humidity
    00:00 +15°C° 0 mm 6 mps 748 mmHg 60%
    01:00 +15°C° 0 mm 6 mps 748 mmHg 60%
    02:00 +15°C° 0.1 mm 6 mps 748 mmHg 62%
    03:00 +15°C° 0.1 mm 5 mps 748 mmHg 64%
    04:00 +14°C° 0.1 mm 5 mps 748 mmHg 66%
    05:00 +14°C° 0.1 mm 5 mps 748 mmHg 67%
    06:00 +14°C° 0.1 mm 5 mps 748 mmHg 68%
    07:00 +15°C° 0.1 mm 5 mps 748 mmHg 70%
    08:00 +14°C° 1.7 mm 5 mps 748 mmHg 76%
    09:00 +13°C° 1.7 mm 5 mps 748 mmHg 82%
    10:00 +13°C° 1.7 mm 5 mps 748 mmHg 89%
    11:00 +13°C° 2.3 mm 5 mps 748 mmHg 89%
    12:00 +13°C° 2.3 mm 5 mps 748 mmHg 89%
    13:00 +13°C° 2.3 mm 5 mps 749 mmHg 89%
    14:00 +14°C° 0 mm 5 mps 749 mmHg 86%
    15:00 +15°C° 0 mm 5 mps 749 mmHg 84%
    16:00 +15°C° 0 mm 5 mps 749 mmHg 82%
    17:00 +15°C° 0 mm 5 mps 749 mmHg 83%
    18:00 +15°C° 0 mm 4 mps 749 mmHg 84%
    19:00 +14°C° 0 mm 4 mps 749 mmHg 85%
    20:00 +13°C° 0 mm 4 mps 749 mmHg 87%
    21:00 +12°C° 0 mm 3 mps 749 mmHg 90%
    22:00 +11°C° 0 mm 3 mps 749 mmHg 93%
    23:00 +11°C° 0 mm 3 mps 749 mmHg 93%
    Show more